• In Moldova, Republic
  • List of Countries
  • For 7 days
  • Water Temperature
  • Satellite Maps
  • Weather Map
  • Weather Widgets
  • user-avatar
    Login

    Hourly Weather Newcastle

    Today, 24 April, Monday

    Time Temperature Precipitation Wind Pressure Humidity
    00:00 +14°C° 0 mm 1 mps 766 mmHg 97%
    01:00 +14°C° 0 mm 1 mps 765 mmHg 97%
    02:00 +14°C° 0 mm 1 mps 765 mmHg 97%
    03:00 +14°C° 0 mm 2 mps 765 mmHg 97%
    04:00 +13°C° 0 mm 1 mps 765 mmHg 97%
    05:00 +14°C° 0.2 mm 2 mps 765 mmHg 97%
    06:00 +14°C° 0.2 mm 2 mps 765 mmHg 96%
    07:00 +15°C° 0.2 mm 2 mps 765 mmHg 95%
    08:00 +19°C° 0.1 mm 1 mps 765 mmHg 81%
    09:00 +22°C° 0.1 mm 1 mps 765 mmHg 67%
    10:00 +26°C° 0 mm 1 mps 765 mmHg 54%
    11:00 +26°C° 0 mm 1 mps 765 mmHg 51%
    12:00 +27°C° 0 mm 1 mps 764 mmHg 48%
    13:00 +27°C° 0 mm 1 mps 764 mmHg 45%
    14:00 +27°C° 0 mm 2 mps 763 mmHg 49%
    15:00 +26°C° 0 mm 2 mps 763 mmHg 53%
    16:00 +25°C° 0 mm 2 mps 763 mmHg 56%
    17:00 +23°C° 0 mm 2 mps 763 mmHg 67%
    18:00 +20°C° 0 mm 2 mps 763 mmHg 78%
    19:00 +18°C° 0 mm 3 mps 763 mmHg 89%
    20:00 +18°C° 0 mm 3 mps 763 mmHg 91%
    21:00 +17°C° 0 mm 3 mps 763 mmHg 93%
    22:00 +17°C° 0 mm 3 mps 763 mmHg 95%
    23:00 +16°C° 0 mm 3 mps 763 mmHg 95%

    Tomorrow, 25 April, Tuesday

    Time Temperature Precipitation Wind Pressure Humidity
    00:00 +16°C° 0 mm 3 mps 762 mmHg 96%
    01:00 +14°C° 0 mm 3 mps 762 mmHg 96%
    02:00 +14°C° 0 mm 3 mps 762 mmHg 95%
    03:00 +14°C° 0 mm 3 mps 761 mmHg 94%
    04:00 +14°C° 0 mm 3 mps 761 mmHg 93%
    05:00 +14°C° 0 mm 3 mps 761 mmHg 89%
    06:00 +16°C° 0 mm 3 mps 761 mmHg 85%
    07:00 +16°C° 0 mm 3 mps 761 mmHg 82%
    08:00 +19°C° 0 mm 3 mps 761 mmHg 71%
    09:00 +22°C° 0 mm 3 mps 760 mmHg 60%
    10:00 +26°C° 0 mm 3 mps 760 mmHg 49%
    11:00 +27°C° 0 mm 3 mps 759 mmHg 46%
    12:00 +28°C° 0 mm 3 mps 758 mmHg 42%
    13:00 +30°C° 0 mm 4 mps 757 mmHg 39%
    14:00 +28°C° 0.1 mm 3 mps 757 mmHg 46%
    15:00 +27°C° 0.1 mm 3 mps 757 mmHg 53%
    16:00 +25°C° 0.1 mm 3 mps 756 mmHg 59%
    17:00 +23°C° 0.4 mm 4 mps 757 mmHg 66%
    18:00 +22°C° 0.4 mm 4 mps 757 mmHg 72%
    19:00 +21°C° 0.4 mm 5 mps 757 mmHg 79%
    20:00 +20°C° 0 mm 5 mps 757 mmHg 80%
    21:00 +20°C° 0 mm 4 mps 756 mmHg 82%
    22:00 +19°C° 0 mm 4 mps 756 mmHg 83%
    23:00 +19°C° 0 mm 4 mps 756 mmHg 85%

    Day after tomorrow, 26 April, Wednesday

    Time Temperature Precipitation Wind Pressure Humidity
    00:00 +18°C° 0 mm 4 mps 755 mmHg 87%
    01:00 +18°C° 0 mm 4 mps 755 mmHg 88%
    02:00 +18°C° 0 mm 4 mps 755 mmHg 89%
    03:00 +18°C° 0 mm 4 mps 754 mmHg 90%
    04:00 +16°C° 0 mm 5 mps 754 mmHg 91%
    05:00 +17°C° 0.1 mm 4 mps 754 mmHg 91%
    06:00 +17°C° 0.1 mm 4 mps 754 mmHg 90%
    07:00 +17°C° 0.1 mm 4 mps 754 mmHg 90%
    08:00 +18°C° 0.2 mm 4 mps 754 mmHg 86%
    09:00 +20°C° 0.2 mm 4 mps 754 mmHg 81%
    10:00 +21°C° 0.2 mm 5 mps 754 mmHg 77%
    11:00 +22°C° 0.3 mm 5 mps 753 mmHg 66%
    12:00 +23°C° 0.3 mm 6 mps 752 mmHg 55%
    13:00 +24°C° 0.3 mm 6 mps 751 mmHg 44%
    14:00 +22°C° 0.1 mm 7 mps 752 mmHg 49%
    15:00 +21°C° 0.1 mm 8 mps 752 mmHg 53%
    16:00 +18°C° 0.1 mm 9 mps 752 mmHg 58%
    17:00 +16°C° 0.1 mm 9 mps 753 mmHg 56%
    18:00 +13°C° 0.1 mm 9 mps 754 mmHg 54%
    19:00 +12°C° 0.1 mm 8 mps 755 mmHg 51%
    20:00 +11°C° 0 mm 8 mps 756 mmHg 53%
    21:00 +11°C° 0 mm 8 mps 756 mmHg 55%
    22:00 +11°C° 0 mm 7 mps 757 mmHg 56%
    23:00 +11°C° 0 mm 7 mps 757 mmHg 58%

    27 April, Thursday

    Time Temperature Precipitation Wind Pressure Humidity
    00:00 +11°C° 0 mm 7 mps 757 mmHg 60%
    01:00 +10°C° 0 mm 6 mps 757 mmHg 62%
    02:00 +10°C° 0 mm 6 mps 757 mmHg 64%
    03:00 +9°C° 0 mm 6 mps 757 mmHg 66%
    04:00 +9°C° 0 mm 6 mps 757 mmHg 67%
    05:00 +9°C° 0 mm 5 mps 758 mmHg 68%
    06:00 +8°C° 0 mm 5 mps 758 mmHg 68%
    07:00 +8°C° 0 mm 5 mps 759 mmHg 68%
    08:00 +10°C° 0 mm 5 mps 759 mmHg 63%
    09:00 +12°C° 0 mm 5 mps 759 mmHg 57%
    10:00 +13°C° 0 mm 5 mps 760 mmHg 51%
    11:00 +14°C° 0 mm 5 mps 760 mmHg 48%
    12:00 +15°C° 0 mm 5 mps 759 mmHg 46%
    13:00 +16°C° 0 mm 5 mps 759 mmHg 43%
    14:00 +16°C° 0 mm 5 mps 759 mmHg 44%
    15:00 +16°C° 0 mm 6 mps 759 mmHg 44%
    16:00 +17°C° 0 mm 6 mps 759 mmHg 45%
    17:00 +14°C° 0 mm 5 mps 760 mmHg 53%
    18:00 +12°C° 0 mm 5 mps 761 mmHg 62%
    19:00 +9°C° 0 mm 5 mps 761 mmHg 70%
    20:00 +9°C° 0.1 mm 5 mps 762 mmHg 68%
    21:00 +9°C° 0.1 mm 5 mps 762 mmHg 66%
    22:00 +9°C° 0.1 mm 5 mps 762 mmHg 65%
    23:00 +10°C° 0.2 mm 6 mps 762 mmHg 62%

    28 April, Friday

    Time Temperature Precipitation Wind Pressure Humidity
    00:00 +10°C° 0.2 mm 7 mps 762 mmHg 60%
    01:00 +10°C° 0.2 mm 7 mps 762 mmHg 57%
    02:00 +10°C° 0.6 mm 8 mps 762 mmHg 58%
    03:00 +10°C° 0.6 mm 8 mps 762 mmHg 59%
    04:00 +10°C° 0.6 mm 8 mps 762 mmHg 60%
    05:00 +10°C° 0.3 mm 8 mps 763 mmHg 61%
    06:00 +10°C° 0.3 mm 8 mps 763 mmHg 62%
    07:00 +10°C° 0.3 mm 7 mps 764 mmHg 63%
    08:00 +11°C° 0.2 mm 7 mps 764 mmHg 60%
    09:00 +14°C° 0.2 mm 6 mps 764 mmHg 56%
    10:00 +15°C° 0.2 mm 6 mps 764 mmHg 53%
    11:00 +17°C° 0.1 mm 6 mps 764 mmHg 48%
    12:00 +19°C° 0.1 mm 5 mps 763 mmHg 44%
    13:00 +20°C° 0.1 mm 5 mps 763 mmHg 39%
    14:00 +20°C° 0.1 mm 5 mps 763 mmHg 41%
    15:00 +20°C° 0.1 mm 5 mps 762 mmHg 42%
    16:00 +20°C° 0.1 mm 4 mps 762 mmHg 43%
    17:00 +17°C° 0.1 mm 4 mps 763 mmHg 58%
    18:00 +13°C° 0.1 mm 3 mps 763 mmHg 74%
    19:00 +10°C° 0.1 mm 3 mps 763 mmHg 89%
    20:00 +10°C° 0 mm 3 mps 763 mmHg 85%
    21:00 +11°C° 0 mm 3 mps 763 mmHg 81%
    22:00 +12°C° 0 mm 2 mps 763 mmHg 77%
    23:00 +11°C° 0 mm 3 mps 763 mmHg 74%

    29 April, Saturday

    Time Temperature Precipitation Wind Pressure Humidity
    00:00 +11°C° 0 mm 3 mps 763 mmHg 71%
    01:00 +11°C° 0 mm 3 mps 762 mmHg 69%
    02:00 +11°C° 0 mm 3 mps 762 mmHg 68%
    03:00 +10°C° 0 mm 4 mps 762 mmHg 67%
    04:00 +10°C° 0 mm 4 mps 761 mmHg 66%
    05:00 +10°C° 0 mm 4 mps 761 mmHg 68%
    06:00 +10°C° 0 mm 4 mps 762 mmHg 70%
    07:00 +10°C° 0 mm 4 mps 762 mmHg 72%
    08:00 +12°C° 0 mm 4 mps 762 mmHg 66%
    09:00 +15°C° 0 mm 5 mps 762 mmHg 59%
    10:00 +17°C° 0 mm 5 mps 761 mmHg 53%
    11:00 +19°C° 0 mm 5 mps 761 mmHg 49%
    12:00 +21°C° 0 mm 5 mps 760 mmHg 45%
    13:00 +22°C° 0 mm 5 mps 760 mmHg 41%
    14:00 +22°C° 0 mm 5 mps 760 mmHg 43%
    15:00 +22°C° 0 mm 5 mps 760 mmHg 45%
    16:00 +22°C° 0 mm 5 mps 760 mmHg 47%
    17:00 +20°C° 0.1 mm 5 mps 761 mmHg 53%
    18:00 +19°C° 0.1 mm 6 mps 762 mmHg 59%
    19:00 +16°C° 0.1 mm 6 mps 763 mmHg 65%
    20:00 +15°C° 0 mm 6 mps 763 mmHg 67%
    21:00 +15°C° 0 mm 7 mps 764 mmHg 70%
    22:00 +14°C° 0 mm 7 mps 764 mmHg 73%
    23:00 +14°C° 0.1 mm 7 mps 764 mmHg 73%
    Show more